Date String (YYYY-MM-DD hh:mm:ss) UTC,Instrument flags,Ambient pressure (hPa),Sample flow (lpm),Bypass flow (lpm),Sample temperature (°C),Ambient temperature (°C),ASC tube jacket temperature (°C),LED temperature (°C),Box temperature (°C),Sample RH (%),Span deviation,Mass concentration (μg/m³),Mass concentration (μg/m³),Mass concentration (μg/m³)
DateTimeUTC,F1_M11,P_M11,Q1_M11,Q2_M11,T1_M11,T2_M11,T3_M11,T4_M11,T5_M11,U1_M11,ZSPAN_M11,X0_M11,X2_M11,X1_M11
2022-11-25 22:00:00,,0829.5,4.99,0.00,28.0,26.8,00.0,36.9,29.9,10.4,0000.0,0003.63,0001.43,0001.04
2022-11-25 22:01:00,,0829.5,5.02,0.00,28.0,26.8,00.0,36.9,29.9,10.2,0000.0,0003.54,0001.40,0001.05
2022-11-25 22:02:00,,0829.5,4.99,0.00,28.0,26.8,00.0,36.9,29.8,10.2,0000.0,0003.53,0001.40,0001.05
2022-11-25 22:03:00,,0829.5,5.01,0.00,28.0,26.8,00.0,36.9,29.8,10.3,0000.0,0003.59,0001.43,0001.06
2022-11-25 22:04:00,,0829.5,4.98,0.00,28.0,26.8,00.0,36.9,29.9,10.3,0000.0,0003.75,0001.45,0001.09
2022-11-25 22:05:00,,0829.5,5.02,0.00,28.0,26.8,00.0,36.9,29.9,10.3,0000.0,0003.54,0001.51,0001.10
2022-11-25 22:06:00,,0829.4,4.98,0.00,28.0,26.8,00.0,36.9,29.9,10.2,0000.0,0003.33,0001.52,0001.12
2022-11-25 22:07:00,,0829.4,5.01,0.00,28.0,26.8,00.0,36.9,29.9,10.3,0000.0,0003.37,0001.53,0001.14
2022-11-25 22:08:00,,0829.4,4.98,0.00,28.0,26.8,00.0,36.9,29.9,10.4,0000.0,0003.45,0001.56,0001.16
2022-11-25 22:09:00,,0829.3,5.01,0.00,28.0,26.9,00.0,36.9,29.9,10.4,0000.0,0003.36,0001.61,0001.19
2022-11-25 22:10:00,,0829.3,5.00,0.00,28.0,26.8,00.0,36.9,29.9,10.2,0000.0,0002.98,0001.66,0001.23
2022-11-25 22:11:00,,0829.3,4.99,0.00,28.1,26.8,00.0,36.9,29.9,10.3,0000.0,0003.03,0001.68,0001.26
2022-11-25 22:12:00,,0829.3,5.01,0.00,28.1,26.9,00.0,36.9,29.9,10.4,0000.0,0003.61,0001.74,0001.29
2022-11-25 22:13:00,,0829.4,4.99,0.00,28.0,26.8,00.0,36.9,29.9,10.4,0000.0,0004.03,0001.82,0001.33
2022-11-25 22:14:00,,0829.3,5.01,0.00,28.1,26.8,00.0,36.9,29.9,10.3,0000.0,0003.97,0001.82,0001.35
2022-11-25 22:15:00,,0829.3,4.99,0.00,28.1,26.9,00.0,36.9,29.9,10.4,0000.0,0003.92,0001.84,0001.37
2022-11-25 22:16:00,,0829.3,5.00,0.00,28.1,26.9,00.0,36.9,30.0,10.2,0000.0,0003.74,0001.82,0001.39
2022-11-25 22:17:00,,0829.3,5.00,0.00,28.1,26.9,00.0,36.9,30.0,10.2,0000.0,0003.70,0001.84,0001.41
2022-11-25 22:18:00,,0829.4,4.99,0.00,28.1,26.9,00.0,36.9,30.0,10.4,0000.0,0003.63,0001.83,0001.41
2022-11-25 22:19:00,,0829.3,5.00,0.00,28.1,26.9,00.0,36.9,30.0,10.3,0000.0,0003.54,0001.83,0001.43
2022-11-25 22:20:00,,0829.2,5.01,0.00,28.1,26.9,00.0,37.0,30.0,10.3,0000.0,0003.38,0001.79,0001.43
2022-11-25 22:21:00,,0829.2,4.99,0.00,28.1,26.9,00.0,37.0,30.0,10.3,0000.0,0003.41,0001.77,0001.42
2022-11-25 22:22:00,,0829.2,5.00,0.00,28.1,26.9,00.0,37.0,30.0,10.4,0000.0,0003.52,0001.79,0001.42
2022-11-25 22:23:00,,0829.3,4.99,0.00,28.1,27.0,00.0,37.0,30.0,10.4,0000.0,0003.14,0001.76,0001.40
2022-11-25 22:24:00,,0829.3,5.01,0.00,28.1,26.9,00.0,37.0,30.0,10.3,0000.0,0002.70,0001.74,0001.40
2022-11-25 22:25:00,,0829.2,5.00,0.00,28.1,26.8,00.0,37.0,30.0,10.3,0000.0,0002.75,0001.77,0001.38
2022-11-25 22:26:00,,0829.2,4.99,0.00,28.1,26.9,00.0,37.0,30.0,10.2,0000.0,0002.76,0001.76,0001.36
2022-11-25 22:27:00,,0829.2,5.01,0.00,28.1,26.9,00.0,37.0,30.0,10.2,0000.0,0002.68,0001.71,0001.34
2022-11-25 22:28:00,,0829.2,4.98,0.00,28.1,26.8,00.0,37.0,30.0,10.1,0000.0,0002.59,0001.65,0001.30
2022-11-25 22:29:00,,0829.3,5.01,0.00,28.2,26.9,00.0,37.0,30.0,10.1,0000.0,0002.56,0001.62,0001.27
2022-11-25 22:30:00,,0829.2,5.00,0.00,28.2,26.9,00.0,37.0,30.0,10.2,0000.0,0002.56,0001.59,0001.23
2022-11-25 22:31:00,,0829.2,4.99,0.00,28.1,26.8,00.0,37.0,30.0,10.3,0000.0,0002.58,0001.57,0001.20
2022-11-25 22:32:00,,0829.3,5.01,0.00,28.1,26.8,00.0,37.0,30.0,10.4,0000.0,0002.57,0001.55,0001.16
2022-11-25 22:33:00,,0829.2,5.00,0.00,28.1,26.8,00.0,37.0,30.0,10.4,0000.0,0002.25,0001.45,0001.13
2022-11-25 22:34:00,,0829.2,4.99,0.00,28.2,26.9,00.0,37.0,30.0,10.4,0000.0,0002.10,0001.40,0001.10
2022-11-25 22:35:00,,0829.2,5.02,0.00,28.1,26.9,00.0,37.0,30.0,10.4,0000.0,0001.96,0001.33,0001.07
2022-11-25 22:36:00,,0829.3,4.99,0.00,28.2,26.9,00.0,37.0,30.0,10.3,0000.0,0001.89,0001.25,0001.04
2022-11-25 22:37:00,,0829.2,4.99,0.00,28.2,27.0,00.0,37.0,30.0,10.5,0000.0,0001.92,0001.22,0001.02
2022-11-25 22:38:00,,0829.2,5.00,0.00,28.2,27.0,00.0,37.0,30.0,10.3,0000.0,0002.00,0001.22,0001.01
2022-11-25 22:39:00,,0829.2,5.02,0.00,28.2,27.0,00.0,37.0,30.0,10.3,0000.0,0002.06,0001.22,0001.00
2022-11-25 22:40:00,,0829.1,4.98,0.00,28.2,27.0,00.0,37.0,30.0,10.2,0000.0,0002.14,0001.23,0000.99
2022-11-25 22:41:00,,0829.1,5.02,0.00,28.2,27.0,00.0,37.0,30.1,10.2,0000.0,0002.35,0001.29,0000.98
2022-11-25 22:42:00,,0829.1,4.98,0.00,28.2,27.0,00.0,37.1,30.1,10.3,0000.0,0002.42,0001.30,0000.98
2022-11-25 22:43:00,,0829.1,5.00,0.00,28.2,27.0,00.0,37.1,30.1,10.3,0000.0,0002.64,0001.33,0000.97
2022-11-25 22:44:00,,0829.1,5.01,0.00,28.2,27.1,00.0,37.1,30.1,10.4,0000.0,0004.10,0001.38,0000.96
2022-11-25 22:45:00,,0829.1,4.98,0.00,28.2,27.1,00.0,37.1,30.1,10.3,0000.0,0004.23,0001.41,0000.95
2022-11-25 22:46:00,,0829.1,5.00,0.00,28.3,27.1,00.0,37.1,30.1,10.3,0000.0,0004.36,0001.46,0000.94
2022-11-25 22:47:00,,0829.1,5.01,0.00,28.2,27.0,00.0,37.1,30.1,10.3,0000.0,0004.69,0001.48,0000.93
2022-11-25 22:48:00,,0829.1,5.01,0.00,28.2,27.0,00.0,37.1,30.1,10.4,0000.0,0004.99,0001.52,0000.92
2022-11-25 22:49:00,,0829.1,5.01,0.00,28.3,27.1,00.0,37.1,30.1,10.4,0000.0,0004.99,0001.49,0000.90
2022-11-25 22:50:00,,0829.1,4.98,0.00,28.3,27.0,00.0,37.1,30.1,10.4,0000.0,0004.91,0001.44,0000.88
2022-11-25 22:51:00,,0829.0,5.01,0.00,28.3,27.0,00.0,37.1,30.1,10.4,0000.0,0004.86,0001.44,0000.87
2022-11-25 22:52:00,,0829.1,5.01,0.00,28.3,27.1,00.0,37.1,30.1,10.4,0000.0,0004.86,0001.42,0000.86
2022-11-25 22:53:00,,0829.0,4.99,0.00,28.3,27.1,00.0,37.1,30.1,10.4,0000.0,0004.92,0001.41,0000.84
2022-11-25 22:54:00,,0829.0,5.01,0.00,28.3,27.0,00.0,37.1,30.1,10.4,0000.0,0005.67,0001.39,0000.83
2022-11-25 22:55:00,,0829.0,5.01,0.00,28.3,27.0,00.0,37.1,30.1,10.3,0000.0,0005.05,0001.33,0000.83
2022-11-25 22:56:00,,0829.0,4.99,0.00,28.3,27.1,00.0,37.2,30.2,10.2,0000.0,0005.58,0001.37,0000.81
2022-11-25 22:57:00,,0829.0,5.01,0.00,28.3,27.1,00.0,37.2,30.2,10.2,0000.0,0005.51,0001.32,0000.79
2022-11-25 22:58:00,,0829.0,4.99,0.00,28.3,27.1,00.0,37.2,30.2,10.2,0000.0,0005.30,0001.27,0000.78
2022-11-25 22:59:00,,0829.0,5.00,0.00,28.3,27.1,00.0,37.2,30.2,10.1,0000.0,0004.81,0001.23,0000.76
